Location: Prague
(50.0830°N, 14.4670°E)
Time: 07:28:46
(UTC+02:00)

DOVE 4 - Pass Details

Date: 02 April 2023
Orbit: 584 x 791 km, 97.8° (Epoch: 29 May)

Event Time Altitude Azimuth Distance (km) Brightness Sun altitude
Rises 23:43:46 0° 16° (NNE) 3,142 ? -32.0°
Reaches altitude 10° 23:46:08 10° 19° (NNE) 2,184 ? -32.2°
Enters shadow 23:48:09 24° 27° (NNE) 1,407 ? -32.3°
